Location: Almog
(31.7500°N, 35.4667°E)
Time: 23:59:46
(UTC+00:00)

Daily predictions for brighter satellites

Satellite Brightness Start Highest point End
(mag) Time Altitude Azimuth Time Altitude Azimuth Time Altitude Azimuth
Exosat Rocket 4.5 15:49:09 10° SSE 15:54:25 30° ESE 15:58:52 10° NE
CZ-2C R/B 4.3 15:53:03 10° ENE 15:55:17 12° E 15:57:31 10° ESE
Cosmos 2151 Rocket 4.4 15:53:42 10° SSE 15:57:30 28° E 16:01:20 10° NNE
Meteor 1-21 4.2 15:53:11 10° N 15:58:46 69° E 16:04:20 10° SSE
Cosmos 1975 Rocket 2.9 16:02:48 10° N 16:07:07 76° E 16:11:26 10° S
H-2A R/B 2.9 16:05:10 10° SE 16:09:16 27° ENE 16:13:27 10° NNE
Cosmos 1072 Rocket 4.5 16:07:59 10° S 16:14:10 74° E 16:20:29 10° N
COSMO-SKYMED 1 4.5 16:12:38 10° N 16:16:34 34° WNW 16:20:29 10° SW
Cosmos 1844 Rocket 2.7 16:11:50 10° SSW 16:17:23 86° WNW 16:22:59 10° NNE
NOSS 3-4 (A) 3.4 16:14:50 10° S 16:20:28 52° ESE 16:26:18 10° NE
NOSS 3-4 (C) 3.5 16:14:57 10° S 16:20:35 51° ESE 16:26:23 10° NE
Shenzhou-11 Module 3.7 16:19:14 10° WNW 16:20:43 17° NNW 16:22:12 10° NNE
Cosmos 2278 Rocket 3.6 16:18:29 10° SE 16:21:34 15° E 16:21:42 15° E
Cosmos 2034 Rocket 4.2 16:15:33 10° SSE 16:21:41 53° E 16:27:49 10° NNE
Cosmos 1939 Rocket 3.8 16:17:52 10° S 16:21:53 53° W 16:25:57 10° NNW
Cosmos 1844 3.7 16:18:52 10° SSW 16:24:34 86° ESE 16:30:15 10° NNE
Meteor 1-12 Rocket 4.4 16:21:08 10° S 16:27:04 83° W 16:32:54 10° N
USA 116 4.0 16:23:19 10° N 16:27:14 78° WNW 16:31:39 10° SSW
Cosmos 1707 2.6 16:30:20 10° N 16:34:10 87° E 16:37:59 10° S
CZ-2C R/B 0.9 16:31:06 10° WNW 16:34:54 88° NNE 16:36:37 29° ESE
Cosmos 1300 Rocket 4.2 16:34:08 10° SSW 16:38:28 59° W 16:42:50 10° N
Okean 1 Rocket 3.5 16:37:22 10° SSE 16:41:32 40° E 16:45:44 10° NNE
ATLAS 2AS CENTAUR R/B 3.0 16:34:47 10° SSW 16:42:33 72° ESE 16:50:29 10° NNE
CENTAUR R/B 3.8 16:35:17 10° NNW 16:42:54 37° NE 16:47:32 23° ESE
CSL-04 Debris 4.1 16:38:44 10° SSE 16:44:06 80° ENE 16:49:30 10° N
CSL-04 Rocket 3.6 16:40:44 10° SSE 16:46:07 79° ENE 16:51:38 10° N
Cosmos 1634 Rocket 4.4 16:44:03 10° SSE 16:49:35 36° E 16:55:09 10° NNE
YAOGAN 1 3.6 16:49:13 10° S 16:53:22 48° W 16:57:33 10° NNW
Cosmos 1766 3.4 16:53:37 39° SE 16:54:26 47° E 16:58:14 10° NNE
Milstar 3 Cent rocket 2.6 16:53:32 10° WSW 17:01:49 60° S 17:03:49 38° ESE
Cosmos 1025 Rocket 3.4 16:57:34 10° NNW 17:01:55 65° W 17:06:16 10° S
Gbstr 26 Del rocket 4.3 17:01:04 10° SSW 17:07:11 49° SE 17:10:04 33° ENE
GOES 2 Rocket 3.1 17:03:21 10° W 17:07:30 53° S 17:07:57 50° SSE
Cosmos 2285 Rocket 4.5 17:02:14 10° SSW 17:08:27 62° WNW 17:14:43 10° N
CZ-2C R/B 3.9 17:03:57 10° S 17:09:02 52° W 17:14:24 10° NNW
Cosmos 1536 Rocket 3.8 17:07:01 10° N 17:11:28 71° W 17:15:15 14° S
USA 238 DEB 3.8 17:04:30 10° NNW 17:11:52 76° ENE 17:15:45 32° SE
USA 238 3.8 17:04:37 10° NNW 17:11:59 75° ENE 17:15:48 32° SE
CZ-4 R/B 4.0 17:08:55 10° SSW 17:12:11 22° W 17:15:27 10° NW
Cosmos 2026 Rocket 4.3 17:11:31 10° N 17:17:35 44° E 17:17:41 44° E
Cosmos 1092 Rocket 3.9 17:11:32 10° N 17:17:39 61° E 17:19:35 42° SE
ARGOS 3.3 17:19:55 16° S 17:24:10 71° WSW 17:29:32 10° NNW
Cosmos 1674 3.3 17:22:17 10° NNW 17:25:26 54° NW 17:25:26 54° NW
OAO 1 4.4 17:23:48 10° W 17:29:17 78° NNW 17:29:53 68° NE
MOS 1 4.2 17:30:21 64° ENE 17:30:21 64° ENE 17:35:59 10° N
CZ-2C R/B 3.0 17:30:21 10° N 17:35:54 67° WNW 17:41:27 10° SSW
NOSS 3-2 (A) 4.3 17:28:36 10° NW 17:36:34 72° WSW 17:41:26 29° SSE
Cosmos 2142 Rocket 4.4 17:40:00 70° ENE 17:40:00 70° ENE 17:45:53 10° N
Ariane Rocket 3.2 17:47:53 66° WNW 17:47:53 66° WNW 17:52:27 10° NNW
H-2A R/B 3.9 17:44:27 10° SSW 17:48:34 26° W 17:52:46 10° NW
Cosmos 494 Rocket 4.5 17:44:19 10° NNW 17:49:28 56° WSW 17:49:49 54° WSW
USA 234 3.1 17:50:46 78° E 17:51:08 82° SE 17:57:40 10° SW
Cosmos 2278 Rocket 2.9 17:59:32 10° SW 18:10:00 13° N 18:10:37 10° N
NOSS 3-2 (C) 4.4 18:06:52 10° NW 18:14:47 64° WSW 18:16:08 57° SSW
CENTAUR R/B 3.7 18:25:43 10° NW 18:33:55 52° WSW 18:34:47 50° SW
ATLAS 3B R/B 4.0 18:39:03 10° NNW 18:42:35 33° NNW 18:42:35 33° NNW
